Time,TemperatureF,DewpointF,PressureIn,WindDirection,WindDirectionDegrees,WindSpeedMPH,WindSpeedGustMPH,Humidity,HourlyPrecipIn,Conditions,Clouds,dailyrainin,SolarRadiationWatts/m^2,SoftwareType,DateUTC
2013-01-19 00:22:00,33.0,28.0,-100.00,WSW,256,17.0,20.0,80,0.00,,,0.00,0.000000,,2013-01-19 06:22:00,
2013-01-19 00:33:00,33.0,28.0,-100.00,WSW,256,17.0,20.0,80,0.00,,,0.00,0.000000,,2013-01-19 06:33:00,
2013-01-19 00:43:00,33.0,28.0,-100.00,WSW,256,17.0,20.0,80,0.00,,,0.00,0.000000,,2013-01-19 06:43:00,
2013-01-19 00:52:00,33.0,28.0,-100.00,WSW,256,17.0,20.0,80,0.00,,,0.00,0.000000,,2013-01-19 06:52:00,
2013-01-19 01:22:00,32.0,27.0,-100.00,WSW,254,17.0,22.0,83,0.00,,,0.00,0.000000,,2013-01-19 07:22:00,
2013-01-19 01:33:00,32.0,27.0,-100.00,WSW,254,17.0,22.0,83,0.00,,,0.00,0.000000,,2013-01-19 07:33:00,
2013-01-19 01:43:00,32.0,27.0,-100.00,WSW,254,17.0,22.0,83,0.00,,,0.00,0.000000,,2013-01-19 07:43:00,
2013-01-19 01:52:00,32.0,27.0,-100.00,WSW,254,17.0,22.0,83,0.00,,,0.00,0.000000,,2013-01-19 07:52:00,
2013-01-19 02:22:00,30.0,25.0,-100.00,West,274,18.0,25.0,82,0.00,,,0.00,0.000000,,2013-01-19 08:22:00,
2013-01-19 02:32:00,30.0,25.0,-100.00,West,274,18.0,25.0,82,0.00,,,0.00,0.000000,,2013-01-19 08:32:00,
2013-01-19 02:43:00,30.0,25.0,-100.00,West,274,18.0,25.0,82,0.00,,,0.00,0.000000,,2013-01-19 08:43:00,
2013-01-19 02:52:00,30.0,25.0,-100.00,West,274,18.0,25.0,82,0.00,,,0.00,0.000000,,2013-01-19 08:52:00,
2013-01-19 03:23:00,30.0,26.0,-100.00,West,269,16.0,22.0,84,0.00,,,0.00,0.000000,,2013-01-19 09:23:00,
2013-01-19 03:33:00,30.0,26.0,-100.00,West,269,16.0,22.0,84,0.00,,,0.00,0.000000,,2013-01-19 09:33:00,
2013-01-19 03:42:00,30.0,26.0,-100.00,West,269,16.0,22.0,84,0.00,,,0.00,0.000000,,2013-01-19 09:42:00,
2013-01-19 03:52:00,30.0,26.0,-100.00,West,269,16.0,22.0,84,0.00,,,0.00,0.000000,,2013-01-19 09:52:00,
2013-01-19 04:22:00,30.0,26.0,-100.00,West,269,14.0,21.0,85,0.00,,,0.00,0.000000,,2013-01-19 10:22:00,
2013-01-19 04:32:00,30.0,26.0,-100.00,West,269,14.0,21.0,85,0.00,,,0.00,0.000000,,2013-01-19 10:32:00,
2013-01-19 04:42:00,30.0,26.0,-100.00,West,269,14.0,21.0,85,0.00,,,0.00,0.000000,,2013-01-19 10:42:00,
2013-01-19 04:52:00,30.0,26.0,-100.00,West,269,14.0,21.0,85,0.00,,,0.00,0.000000,,2013-01-19 10:52:00,
2013-01-19 06:48:00,33.0,27.0,-100.00,WNW,291,20.0,26.0,79,0.00,,,0.00,0.000000,,2013-01-19 12:48:00,
2013-01-19 06:52:00,33.0,27.0,-100.00,WNW,291,20.0,26.0,79,0.00,,,0.00,0.000000,,2013-01-19 12:52:00,
2013-01-19 07:22:00,31.0,26.0,-100.00,WNW,288,20.0,25.0,83,0.00,,,0.00,0.000000,,2013-01-19 13:22:00,
2013-01-19 07:33:00,31.0,26.0,-100.00,WNW,288,20.0,25.0,83,0.00,,,0.00,0.000000,,2013-01-19 13:33:00,
2013-01-19 07:42:00,31.0,26.0,-100.00,WNW,288,20.0,25.0,83,0.00,,,0.00,0.000000,,2013-01-19 13:42:00,
2013-01-19 07:52:00,31.0,26.0,-100.00,WNW,288,20.0,25.0,83,0.00,,,0.00,0.000000,,2013-01-19 13:52:00,
2013-01-19 08:23:00,31.0,27.0,-100.00,WNW,295,18.0,26.0,85,0.00,,,0.00,0.000000,,2013-01-19 14:23:00,
2013-01-19 08:34:00,31.0,27.0,-100.00,WNW,295,18.0,26.0,85,0.00,,,0.00,0.000000,,2013-01-19 14:34:00,
2013-01-19 08:43:00,31.0,27.0,-100.00,WNW,295,18.0,26.0,85,0.00,,,0.00,0.000000,,2013-01-19 14:43:00,
2013-01-19 08:53:00,31.0,27.0,-100.00,WNW,295,18.0,26.0,85,0.00,,,0.00,0.000000,,2013-01-19 14:53:00,
2013-01-19 09:23:00,33.0,30.0,-100.00,WNW,301,19.0,24.0,87,0.00,,,0.00,14.000000,,2013-01-19 15:23:00,
2013-01-19 09:33:00,33.0,30.0,-100.00,WNW,301,19.0,24.0,87,0.00,,,0.00,14.000000,,2013-01-19 15:33:00,
2013-01-19 09:43:00,33.0,30.0,-100.00,WNW,301,19.0,24.0,87,0.00,,,0.00,14.000000,,2013-01-19 15:43:00,
2013-01-19 09:53:00,33.0,30.0,-100.00,WNW,301,19.0,24.0,87,0.00,,,0.00,14.000000,,2013-01-19 15:53:00,
2013-01-19 10:23:00,33.0,29.0,-100.00,WNW,302,16.0,23.0,86,0.00,,,0.00,23.000000,,2013-01-19 16:23:00,
2013-01-19 10:33:00,33.0,29.0,-100.00,WNW,302,16.0,23.0,86,0.00,,,0.00,23.000000,,2013-01-19 16:33:00,
2013-01-19 10:43:00,33.0,29.0,-100.00,WNW,302,16.0,23.0,86,0.00,,,0.00,23.000000,,2013-01-19 16:43:00,
2013-01-19 10:53:00,33.0,29.0,-100.00,WNW,302,16.0,23.0,86,0.00,,,0.00,23.000000,,2013-01-19 16:53:00,
2013-01-19 11:29:00,30.0,25.0,-100.00,NW,325,26.0,40.0,81,0.00,,,0.00,63.000000,,2013-01-19 17:29:00,
2013-01-19 11:35:00,30.0,25.0,-100.00,NW,325,26.0,40.0,81,0.00,,,0.00,63.000000,,2013-01-19 17:35:00,
2013-01-19 11:48:00,30.0,25.0,-100.00,NW,325,26.0,40.0,81,0.00,,,0.00,63.000000,,2013-01-19 17:48:00,
2013-01-19 11:53:00,30.0,25.0,-100.00,NW,325,26.0,40.0,81,0.00,,,0.00,63.000000,,2013-01-19 17:53:00,
2013-01-19 12:27:00,17.0,13.0,-100.00,NNW,341,34.0,47.0,84,0.00,,,0.00,134.000000,,2013-01-19 18:27:00,
2013-01-19 12:35:00,17.0,13.0,-100.00,NNW,341,34.0,47.0,84,0.00,,,0.00,134.000000,,2013-01-19 18:35:00,
2013-01-19 12:45:00,17.0,13.0,-100.00,NNW,341,34.0,47.0,84,0.00,,,0.00,134.000000,,2013-01-19 18:45:00,
2013-01-19 12:55:00,17.0,13.0,-100.00,NNW,341,34.0,47.0,84,0.00,,,0.00,134.000000,,2013-01-19 18:55:00,
2013-01-19 13:30:00,13.0,6.0,-100.00,NNW,346,34.0,44.0,74,0.00,,,0.00,312.000000,,2013-01-19 19:30:00,
2013-01-19 13:39:00,13.0,6.0,-100.00,NNW,346,34.0,44.0,74,0.00,,,0.00,312.000000,,2013-01-19 19:39:00,
2013-01-19 13:46:00,13.0,6.0,-100.00,NNW,346,34.0,44.0,74,0.00,,,0.00,312.000000,,2013-01-19 19:46:00,
2013-01-19 13:54:00,13.0,6.0,-100.00,NNW,346,34.0,44.0,74,0.00,,,0.00,312.000000,,2013-01-19 19:54:00,
2013-01-19 14:25:00,11.0,5.0,-100.00,NNW,335,36.0,45.0,75,0.00,,,0.00,276.000000,,2013-01-19 20:25:00,
2013-01-19 14:38:00,11.0,5.0,-100.00,NNW,335,36.0,45.0,75,0.00,,,0.00,276.000000,,2013-01-19 20:38:00,
2013-01-19 14:47:00,11.0,5.0,-100.00,NNW,335,36.0,45.0,75,0.00,,,0.00,276.000000,,2013-01-19 20:47:00,
2013-01-19 14:54:00,11.0,5.0,-100.00,NNW,335,36.0,45.0,75,0.00,,,0.00,276.000000,,2013-01-19 20:54:00,
2013-01-19 15:26:00,6.0,-3.0,-100.00,NNW,328,40.0,53.0,67,0.00,,,0.00,249.000000,,2013-01-19 21:26:00,
2013-01-19 15:50:00,6.0,-3.0,-100.00,NNW,328,40.0,53.0,67,0.00,,,0.00,249.000000,,2013-01-19 21:50:00,
2013-01-19 15:56:00,6.0,-3.0,-100.00,NNW,328,40.0,53.0,67,0.00,,,0.00,249.000000,,2013-01-19 21:56:00,
2013-01-19 16:35:00,4.0,-5.0,-100.00,NW,324,35.0,49.0,65,0.00,,,0.00,231.000000,,2013-01-19 22:35:00,
2013-01-19 16:47:00,4.0,-5.0,-100.00,NW,324,35.0,49.0,65,0.00,,,0.00,231.000000,,2013-01-19 22:47:00,
2013-01-19 16:54:00,4.0,-5.0,-100.00,NW,324,35.0,49.0,65,0.00,,,0.00,231.000000,,2013-01-19 22:54:00,
2013-01-19 16:59:00,1.0,-7.0,-100.00,NNW,328,31.0,42.0,69,0.00,,,0.00,49.000000,,2013-01-19 22:59:00,
2013-01-19 17:25:00,1.0,-7.0,-100.00,NNW,328,31.0,42.0,69,0.00,,,0.00,49.000000,,2013-01-19 23:25:00,
2013-01-19 17:34:00,1.0,-7.0,-100.00,NNW,328,31.0,42.0,69,0.00,,,0.00,49.000000,,2013-01-19 23:34:00,
2013-01-19 17:45:00,1.0,-7.0,-100.00,NNW,328,31.0,42.0,69,0.00,,,0.00,49.000000,,2013-01-19 23:45:00,
2013-01-19 18:25:00,-1.0,-8.0,-100.00,NNW,327,29.0,39.0,72,0.00,,,0.00,4.000000,,2013-01-20 00:25:00,
2013-01-19 18:35:00,-1.0,-8.0,-100.00,NNW,327,29.0,39.0,72,0.00,,,0.00,4.000000,,2013-01-20 00:35:00,
2013-01-19 18:46:00,-1.0,-8.0,-100.00,NNW,327,29.0,39.0,72,0.00,,,0.00,4.000000,,2013-01-20 00:46:00,
2013-01-19 18:53:00,-1.0,-8.0,-100.00,NNW,327,29.0,39.0,72,0.00,,,0.00,4.000000,,2013-01-20 00:53:00,
2013-01-19 19:26:00,-2.0,-8.0,-100.00,NNW,333,21.0,34.0,76,0.00,,,0.00,0.000000,,2013-01-20 01:26:00,
2013-01-19 19:37:00,-2.0,-8.0,-100.00,NNW,333,21.0,34.0,76,0.00,,,0.00,0.000000,,2013-01-20 01:37:00,
2013-01-19 19:47:00,-2.0,-8.0,-100.00,NNW,333,21.0,34.0,76,0.00,,,0.00,0.000000,,2013-01-20 01:47:00,
2013-01-19 19:58:00,-2.0,-8.0,-100.00,NNW,333,21.0,34.0,76,0.00,,,0.00,0.000000,,2013-01-20 01:58:00,
2013-01-19 20:26:00,-3.0,-9.0,-100.00,NNW,328,18.0,29.0,74,0.00,,,0.00,0.000000,,2013-01-20 02:26:00,
2013-01-19 20:35:00,-3.0,-9.0,-100.00,NNW,328,18.0,29.0,74,0.00,,,0.00,0.000000,,2013-01-20 02:35:00,
2013-01-19 20:44:00,-3.0,-9.0,-100.00,NNW,328,18.0,29.0,74,0.00,,,0.00,0.000000,,2013-01-20 02:44:00,
2013-01-19 20:55:00,-3.0,-9.0,-100.00,NNW,328,18.0,29.0,74,0.00,,,0.00,0.000000,,2013-01-20 02:55:00,
2013-01-19 21:25:00,-4.0,-10.0,-100.00,NW,319,18.0,25.0,76,0.00,,,0.00,0.000000,,2013-01-20 03:25:00,
2013-01-19 21:38:00,-4.0,-10.0,-100.00,NW,319,18.0,25.0,76,0.00,,,0.00,0.000000,,2013-01-20 03:38:00,
2013-01-19 21:45:00,-4.0,-10.0,-100.00,NW,319,18.0,25.0,76,0.00,,,0.00,0.000000,,2013-01-20 03:45:00,
2013-01-19 21:54:00,-4.0,-10.0,-100.00,NW,319,18.0,25.0,76,0.00,,,0.00,0.000000,,2013-01-20 03:54:00,
2013-01-19 22:25:00,-5.0,-11.0,-100.00,NW,320,19.0,27.0,75,0.00,,,0.00,0.000000,,2013-01-20 04:25:00,
2013-01-19 22:35:00,-5.0,-11.0,-100.00,NW,320,19.0,27.0,75,0.00,,,0.00,0.000000,,2013-01-20 04:35:00,
2013-01-19 22:44:00,-5.0,-11.0,-100.00,NW,320,19.0,27.0,75,0.00,,,0.00,0.000000,,2013-01-20 04:44:00,
2013-01-19 22:54:00,-5.0,-11.0,-100.00,NW,320,19.0,27.0,75,0.00,,,0.00,0.000000,,2013-01-20 04:54:00,
2013-01-19 23:22:00,-5.0,-11.0,-100.00,NW,321,14.0,25.0,75,0.00,,,0.00,0.000000,,2013-01-20 05:22:00,
2013-01-19 23:32:00,-5.0,-11.0,-100.00,NW,321,14.0,25.0,75,0.00,,,0.00,0.000000,,2013-01-20 05:32:00,
2013-01-19 23:42:00,-5.0,-11.0,-100.00,NW,321,14.0,25.0,75,0.00,,,0.00,0.000000,,2013-01-20 05:42:00,
2013-01-19 23:53:00,-5.0,-11.0,-100.00,NW,321,14.0,25.0,75,0.00,,,0.00,0.000000,,2013-01-20 05:53:00,